Location: Beuvrequen
(50.8014°N, 1.6652°E)
Time: 01:55:21
(UTC+00:00)

Cosmos 1605 Rocket - Pass Details

Date: 16 October 2021
Orbit: 945 x 1005 km, 82.9° (Epoch: 28 November)

Event Time Altitude Azimuth Distance (km) Brightness Sun altitude
Rises 18:50:09 0° 169° (S) 3,647 6.8 -18.3°
Reaches altitude 10° 18:52:41 10° 165° (SSE) 2,713 6.1 -18.7°
Maximum altitude 18:58:40 51° 91° (E) 1,222 4.1 -19.7°
Drops below altitude 10° 19:04:46 10° 18° (NNE) 2,770 6.3 -20.6°
Sets 19:07:23 0° 13° (NNE) 3,731 7.0 -21.0°
